Domov               UVHVVR             MKGP            O straneh              
ZDRAVSTVENO VARSTVO RASTLIN
  MREŽA AGROMET. POSTAJ
 ► PROGNOSTIČNA OBVESTILA
AGROMETEOROLOŠKI PODATKI -
ARSO
OBVLADOVANJE TVEGANJ ZARADI
NEUGODNIH VREMENSKIH RAZMER
  ► NARAVNE NESREČE
  ► SUŠA/MOČA
  ► NAMAKANJE
  ► ŽLED (gozdarstvo)
KARTOGRAFSKI PRIKAZI
SPLETNE POVEZAVE
PROJEKTI IN PUBLIKACIJE

AGROMETEOROLOŠKA MREŽA: VREMENSKE POSTAJE IN FENOLOŠKA OPAZOVANJA

Pregled podatkov za lokacijo Zavrhek, meteorološka postaja 37907

Pregled senzorjev na lokaciji

ID Ime Zadnja
vrednost
Datum
zadnje
spremembe
Tip
senzorja
1991 Padavine (mm) 0 mm 21.5.2018 12:00 Rain-O-Matic
1990 Relativna vlaga 2 m (% RH) 46,64 % RH 21.5.2018 12:00 50YA
1989 Temperatura 2 m (°C) 21,68 °C 21.5.2018 12:00 50YA

Pregled podatkov zadnjih 24 ur

Zap.
št.
Datum in čas Zavrhek
Padavine Relativna
vlaga
2
m
Temperatura
2
m
1 21.5.2018 12:30
2 21.5.2018 12:00
3 21.5.2018 11:30
4 21.5.2018 11:00 0 46,6 21,7
5 21.5.2018 10:30 0 44,3 21,7
6 21.5.2018 10:00 0 44,7 21,7
7 21.5.2018 09:30 0 49,9 21,1
8 21.5.2018 09:00 0 54,1 20,2
9 21.5.2018 08:30 0 56,3 19,4
10 21.5.2018 08:00 0 57,9 19,2
11 21.5.2018 07:30 0 58,3 18,5
12 21.5.2018 07:00 0 61,7 17,4
13 21.5.2018 06:30 0 62 16,9
14 21.5.2018 06:00 0 64,7 15,8
15 21.5.2018 05:30 0 67,8 14,7
16 21.5.2018 05:00 0 67,4 14,6
17 21.5.2018 04:30 0 66,8 14,7
18 21.5.2018 04:00 0 66,2 15
19 21.5.2018 03:30 0 66,4 15,2
20 21.5.2018 03:00 0 66,8 15,3
21 21.5.2018 02:30 0 68,2 15,2
22 21.5.2018 02:00 0 67,4 15,5
23 21.5.2018 01:30 0 67,3 15,6
24 21.5.2018 01:00 0 67,2 15,8
25 21.5.2018 00:30 0 67,4 15,9
26 21.5.2018 00:00 0 66,5 16,1
27 20.5.2018 23:30 0 65,7 16,3
28 20.5.2018 23:00 0 68,6 15,8
29 20.5.2018 22:30 0 69,2 15,9
30 20.5.2018 22:00 0 67,6 16,1
31 20.5.2018 21:30 0 64,5 16,6
32 20.5.2018 21:00 0 64 16,5
33 20.5.2018 20:30 0 62,7 16,4
34 20.5.2018 20:00 0 59,9 17,1
35 20.5.2018 19:30 0 57,6 17,9
36 20.5.2018 19:00 0 54,1 18,9
37 20.5.2018 18:30 0 53,1 19,7
38 20.5.2018 18:00 0 51,2 20,1
39 20.5.2018 17:30 0 50,5 20,6
40 20.5.2018 17:00 0 50,1 21,4
41 20.5.2018 16:30 0 46,8 22,4
42 20.5.2018 16:00 0 44,3 22,5
43 20.5.2018 15:30 0 48,3 22,1
44 20.5.2018 15:00 0 49,4 22,2
45 20.5.2018 14:30 0 44,4 22,8
46 20.5.2018 14:00 0 46,8 21,7
47 20.5.2018 13:30 0 48,9 21,5
48 20.5.2018 13:00 0 46,1 23
© 2011 Ministrstvo za kmetijstvo, gozdarstvo in prehrano. Vse pravice pridržane.